Tracking 30986 objects as of 9-Jul-2025
HD Live streaming from Space Station
objects crossing your sky now

DELTA 1 DEB

Track DELTA 1 DEB now!
10-day predictions


NORAD ID: 21369
Int'l Code: 1975-052CP
Perigee: 562.9 km
Apogee: 597.3 km
Inclination: 99.6 °
Period: 96.1 minutes
Semi major axis: 6951 km
RCS: 0.052 m2 (small)
Launch date: June 12, 1975
Source: United States (US)
Launch site: AIR FORCE WESTERN TEST RANGE (AFWTR)

Note: This is SATELLITE DEBRIS
Your satellite tracking list
Your tracking list is empty




NASA's NSSDC Master Catalog

Two Line Element Set (TLE):
1 21369U 75052CP  25189.73814677  .00043785  00000-0  36661-2 0  9999
2 21369  99.6399 241.7866 0024728 275.3969 203.1563 14.98045065745554
Source of the keplerian elements: AFSPC